www.pogodaiklimat.ru

Погода и климат >> Архив погоды >> Россия >> Ленинградская область >> Кингисепп


АРХИВ ПОГОДЫ в Кингисеппе

Время (UTC), дата Ветер
(напр.,м/с)
 
Видим.   Явления Облачность Т
(С)
Тd
(С)
f
(%)
Тe
(С)
Тes
(С)
Комфортность P
(гПа)
Po
(гПа)
Тmin
(С)
Tmax
(С)
R
(мм)
R24
(мм)
S
(см)
18 13.07 С 1 10 км {ливн. осадки} 8/1 600 м
[Sc Ac trans Ci fib]
+15.8 +10.3 70 +17 +17 1009.2 1006.8 +20.5 0.0
21 13.07 СЗ 1 10 км 9/1 1000 м
[Sc Ac trans Ci fib]
+12.4 +9.7 84 +12 +12 1010.0 1007.6
00 14.07 ЮЗ 1 10 км 8/0
[Ac trans Ci fib]
+9.1 +8.1 93 +8 +8 1010.6 1008.2
03 14.07 штиль 0 10 км 6/3 1000 м
[Sc Ac trans Ci fib]
+9.5 +8.9 96 +9 +9 1010.9 1008.5 +7.7
06 14.07 С 2 20 км ясно +15.1 +8.2 63 +15 +21 1010.8 1008.4 +9.1
09 14.07 З 1 20 км 4/3 600 м
[Cu hum Ci fib]
+16.8 +6.7 51 +18 +28 1011.2 1008.8
12 14.07 С 3 20 км 6/4 600 м
[Cu med, cong Ci fib]
+18.3 +6.2 45 +19 +24 1010.8 1008.4
15 14.07 С 2 20 км 3/1 1000 м
[Cu med, cong Ci fib]
+19.5 +7.1 45 +21 +25 комфорт 1010.8 1008.4
18 14.07 С 2 10 км 3/1 1000 м
[Sc Ci fib]
+16.1 +6.5 53 +16 +16 1011.2 1008.8 +20.0
21 14.07 штиль 0 10 км 4/1 1000 м
[Sc Ac trans Ci fib]
+10.4 +9.2 92 +10 +10 1011.6 1009.2
00 15.07 штиль 0 10 км 8/4 1000 м
[Sc Ac trans Ci fib]
+9.2 +8.4 95 +8 +8 1011.6 1009.2
03 15.07 штиль 0 10 км 8/1 1000 м
[Sc Ci fib]
+8.4 +7.6 95 +7 +8 1011.5 1009.1 +7.3
06 15.07 В 1 10 км 10/0
[Ac trans Ci]
+17.1 +10.6 66 +18 +24 1011.6 1009.2 +7.3
09 15.07 ЮВ 2 20 км 8/6 600 м
[Cb cap Ci fib]
+18.6 +8.1 50 +20 +24 1011.2 1008.8
12 15.07 ЮЗ 2 20 км 8/5 1000 м
[Cu Sc Ac trans Ci fib]
+19.6 +7.0 44 +21 +25 комфорт 1010.6 1008.2
15 15.07 С 2 20 км 3/3 1000 м
[Cu med, cong]
+19.8 +8.0 46 +21 +24 комфорт 1010.2 1007.8
18 15.07 В 2 20 км 3/0
[Ci fib]
+17.7 +11.1 65 +18 +18 1010.1 1007.7 +21.0
21 15.07 В 1 10 км 4/0
[Ac trans Ci fib]
+13.8 +11.6 87 +14 +14 1010.1 1007.7
00 16.07 ЮВ 1 10 км 8/0
[Ac trans Ci fib]
+12.3 +10.6 89 +12 +12 1010.2 1007.8
03 16.07 СВ 2 20 км в посл. час ливневой дождь 8/4 600 м
[Cb cap Ac trans Ci fib]
+12.1 +11.0 93 +11 +11 1009.7 1007.3 +12.1 0.6
06 16.07 ЮВ 1 20 км {ливн. осадки} 8/0
[Ac trans]
+18.2 +11.7 66 +20 +23 1009.4 1007.0 +12.1 0.6
09 16.07 ЮВ 3 20 км 9/1 600 м
[Cu med, cong Ac trans Ci fib]
+21.0 +9.4 47 +23 +28 комфорт 1009.0 1006.6
12 16.07 ЮВ 3 20 км 8/4 1000 м
[Sc diur, vesp Ac cuf Ci fib]
+21.2 +9.0 46 +22 +26 комфорт 1008.1 1005.8
15 16.07 В 2
{10}
20 км в посл. час ливневой дождь 10/3 600 м
[Cb cap Ac trans Ci fib]
+21.2 +10.6 51 +23 +24 комфорт 1008.1 1005.8 0.5
18 16.07 СВ 1 20 км {ливн. осадки} 6/0
[Ac As]
+19.0 +12.6 66 +21 +21 комфорт 1008.5 1006.1 +23.1 0.5
21 16.07 СВ 2 10 км 3/0
[Ac trans]
+15.7 +10.6 72 +16 +16 1008.8 1006.4
00 17.07 В 1 10 км 5/0
[Ac trans]
+12.9 +10.6 86 +13 +13 1008.9 1006.5
03 17.07 СВ 1 20 км 9/3
[Sc Ac trans Cc]
+12.7 +10.2 85 +13 +13 1008.7 1006.3 +12.1
06 17.07 СЗ 1 10 км 9/0
[Ac trans]
+16.3 +12.5 78 +17 +21 1008.3 1005.9 +12.1
09 17.07 СВ 2 10 км в посл. час ливневой дождь 10/4 1000 м
[Cb cap Ac und]
+17.3 +11.4 68 +18 +20 1008.4 1006.0
12 17.07 СВ 4 10 км {ливн. осадки} 10/10 960 м
[Sc]
+18.8 +12.6 67 +20 +20 1007.9 1005.5
15 17.07 СВ 2 10 км {ливн. осадки} 10/8 720 м
[Sc Ac und]
+17.2 +13.7 80 +18 +18 1008.1 1005.7 0.3
18 17.07 С 2 10 км {ливн. осадки} 9/4 600 м
[Cb cap Ac trans Ci fib]
+17.0 +13.5 80 +17 +17 1008.5 1006.1 +19.1 0.3
21 17.07 СЗ 2 10 км 6/1 1000 м
[Sc Ac trans Ci fib]
+14.5 +13.2 92 +14 +14 1008.5 1006.1
00 18.07 СЗ 2 10 км 3/0
[Ac trans]
+12.7 +12.1 96 +12 +12 1008.2 1005.8
03 18.07 СЗ 1 2000 м туман поземный 10/10 120 м
[St]
+13.2 +12.8 97 +13 +13 1007.9 1005.5 +12.5
06 18.07 С 2 10 км 10/10 500 м
[St]
+16.7 +15.0 90 +17 +17 1017.6 1015.2 +12.5
09 18.07 СЗ 2 10 км 9/9 750 м
[Sc]
+19.6 +15.0 75 +22 +23 комфорт 1007.2 1004.9
12 18.07 С 5 20 км 10/4 600 м
[Cb cap Ci]
+19.4 +14.0 71 +21 +24 комфорт 1006.4 1004.1
15 18.07 СЗ 3
{10}
20 км 10/5 600 м
[Cb cap Ci]
+18.8 +14.1 74 +20 +21 1006.4 1004.1
18 18.07 С 3
{10}
10 км слаб. ливневой дождь 10/8 800 м
[Cb cap Ac und]
+16.2 +14.5 90 +16 +16 1006.3 1004.0 +20.6 0.5
21 18.07 СЗ 2 10 км слаб. ливневой дождь 10/10 420 м
[Cb cap]
+15.7 +14.8 94 +16 +16 1006.0 1003.6
00 19.07 СЗ 3 10 км слаб. ливневой дождь 10/10 360 м
[Cb cap]
+15.4 +14.9 97 +15 +15 1005.6 1003.2
03 19.07 СЗ 2 10 км {ливн. осадки} 10/10 270 м
[St]
+15.6 +15.1 97 +15 +15 1005.8 1003.4 +15.2 7
06 19.07 СЗ 2 4000 м слаб. морось 10/10 210 м
[St]
+15.9 +15.0 94 +16 +16 1005.6 1003.3 +15.2 7
09 19.07 СЗ 2 10 км {ливн. осадки, морось} 10/10 660 м
[Cb cap]
+16.7 +13.9 84 +17 +17 1006.4 1004.1
12 19.07 СЗ 2 4000 м дождь {ливн. осадки} 10/10 180 м
[Frnb Ns]
+16.1 +15.8 98 +16 +16 1007.1 1004.8
15 19.07 4000 м дождь н/о +15.9 +15.4 97 +15 +16 1007.8 1005.4 13
18 19.07 СЗ 2 4000 м слаб. морось {дождь} 10/10 210 м
[St]
+15.7 +15.2 97 +16 +16 1008.3 1005.9 +16.7 16
21 19.07 СЗ 2 10 км {дождь, морось} 10/10 500 м
[St]
+15.6 +14.9 96 +15 +15 1009.0 1006.6
00 20.07 З 2 10 км {дождь, морось} 10/10 540 м
[St]
+15.4 +14.7 96 +15 +15 1009.5 1007.1
03 20.07 З 1 10 км слаб. дождь 10/10 300 м
[Frnb Ns]
+15.1 +14.8 98 +16 +16 1010.0 1007.6 +15.1 4
06 20.07 СЗ 2 10 км {дождь} 10/10 240 м
[St]
+16.1 +14.9 93 +16 +16 1011.0 1008.6 +15.1 0.7
09 20.07 З 3 2000 м морось 10/10 300 м
[St]
+16.4 +15.4 94 +16 +16 1012.7 1010.3
12 20.07 СЗ 3 20 км {морось} 10/10 1350 м
[Cb cap]
+19.2 +15.3 78 +21 +21 комфорт 1014.3 1011.9
15 20.07 СЗ 2 20 км 8/8 1200 м
[Cb cap]
+20.4 +14.4 68 +24 +24 комфорт 1014.9 1012.5 0.1

 

Местоположение метеостанции Кингисепп (Ленинградская область, Россия): широта 59.37 долгота 28.60 высота над уровнем моря 20 м.

В архиве по умолчанию представлена погода в Кингисеппе за последнюю неделю. Архивные данные за месяц целиком и за предыдущие месяцы, начиная с января 2011 года, Вы можете получить, выбрав интересующий диапазон дат из раскрывающегося списка и нажав кнопку "Ввод!".


*Определитесь, кто Вы:
робот инопланетянин человек

Внимание! Время в таблицах - всемирное. Для получения местного времени необходимо прибавить поправку, которая равна 3 ч.

Смотрите также архив погоды в соседних городах и на ближайших метеорологических станциях:

Погода в Нарве (Эстония) (27 км)
Погода в Сланцах (Ленинградская область, Россия) (41 км)
Погода в Волосово (Ленинградская область, Россия) (51 км)
Погода в Сосновом Бору (Ленинградская область, Россия) (59 км)
Погода в Шепелево (Ленинградская область, Россия) (66 км)
Погода в Йохви (Эстония) (69 км)
Погода в Гдове (Псковская область, Россия) (84 км)
Погода в Белогорке (Ленинградская область, Россия) (87 км)
Погода в Ломоносове (город Санкт-Петербург, Россия) (90 км)
Погода в Кронштадте (город Санкт-Петербург, Россия) (94 км)

Пояснения к столбцам:

Ветер - указаны скорость ветра в м/с - средняя за 10 мин, порывы в срок и между сроками (в фигурных скобках) и направление, откуда дует ветер: С - северный, СВ - северо-восточный, В - восточный, ЮВ - юго-восточный, Ю - южный, ЮЗ - юго-западный, З - западный, СЗ - северо-западный.
Видимость - горизонтальная дальность видимости в метрах или километрах. При видимости от 1 до 10 км при отсутствии осадков обычно наблюдается дымка, при ухудшении видимости до 1 км и менее - туман. В сухую погоду видимость может ухудшаться дымом, пылью или мглою.
Явления - указаны атмосферные явления, наблюдавшиеся в срок или в последний час перед сроком; фигурными скобками обозначены явления, наблюдавшиеся между сроками (за 1-3 часа до срока); квадратными скобками обозначены град или гололедные отложения с указанием их диаметра в мм.
Облачность - указаны через наклонную черту общая и нижняя облачность в баллах и высота нижней границы облаков в метрах; квадратными скобками обозначены формы облаков: Ci - перистые, Cs - перисто-слоистые, Cc - перисто-кучевые, Ac - высококучевые, As - высокослоистые, Sc - слоисто-кучевые, Ns - слоисто-дождевые, Cu - кучевые, Cb - кучево-дождевые. Подробнее классификацию облаков см. в Атласе облаков (PDF).
T - Температура воздуха - температура, измеренная на высоте 2 м над землей.
Td - Температура точки росы - температура, при понижении до которой содержащийся в воздухе водяной пар достигнет насыщения.
f - Относительная влажность воздуха - влажноcть воздуха, измеренная на высоте 2 м над землей.
Te - Эффективная температура - температура, которую ощущает одетый по сезону человек в тени. Характеристика душности погоды. При расчете учитывается влияние влажности воздуха и скорости ветра на теплоощущения человека.
Tes - Эффективная температура на солнце - температура, которую ощущает человек, с поправкой на солнечный нагрев. Характеристика знойности погоды. Зависит от высоты солнца над горизонтом, облачности и скорости ветра. Ночью, в пасмурную погоду, а также при ветре 12 м/с и более поправка равна нулю.
P - Атмосферное давление - приведенное к уровню моря атмосферное давление.
Po - Атмосферное давление - измеренное на уровне метеостанции атмосферное давление.
Tmin - Минимальная температура - минимум температуры воздуха на высоте 2 м над землей.
Tmax - Максимальная температура - максимум температуры воздуха на высоте 2 м над землей.
R - Количество осадков - Количество выпавших осадков за период времени, мм. При наведении курсора мыши на число - период времени, за который выпало указанное количество осадков.
R24 - Количество осадков - Количество выпавших осадков за 24 часа, мм.
S - Снежный покров - Высота снежного покрова, см. При наведении курсора мыши на число - состояние снежного покрова и степень покрытия местности в баллах.